{"data":{"norad_id":48674,"epoch":"2026-09-19T19:39:15.165792Z","epoch_age_seconds":100113,"freshness":"FRESH","line1":"1 48674U 21044AN  26262.81892553 -.00000344  00000+0  68716-6 0  9994","line2":"2 48674  53.1606 292.1051 0001196 100.6802 259.4334 15.31686717293533","mean_motion":15.31686717,"eccentricity":0.0001196,"inclination_deg":53.1606,"raan_deg":292.1051,"arg_perigee_deg":100.6802,"mean_anomaly_deg":259.4334,"bstar":6.8716e-7,"rev_number":29353,"period_min":94.014003256516,"perigee_km":469.96046101927,"apogee_km":471.59872186795,"semimajor_km":6848.9165914436,"source":"CELESTRAK","updated_at":"2026-09-20T09:00:39.242109Z"}}